Time,TemperatureF,DewpointF,PressureIn,WindDirection,WindDirectionDegrees,WindSpeedMPH,WindSpeedGustMPH,Humidity,HourlyPrecipIn,Conditions,Clouds,dailyrainin,SoftwareType,DateUTC
2013-02-21 00:03:00,-999.0,-99.9,30.10,North,358,0.0,2.0,-999,-99.99,,,-99.99,,2013-02-21 05:03:00,
2013-02-21 00:12:00,-999.0,-99.9,30.10,North,358,0.0,2.0,-999,-99.99,,,-99.99,,2013-02-21 05:12:00,
2013-02-21 00:22:00,-999.0,-99.9,30.10,North,358,0.0,2.0,-999,-99.99,,,-99.99,,2013-02-21 05:22:00,
2013-02-21 01:42:00,44.0,-99.9,30.08,North,-999,-999.0,-999.0,-999,-99.99,,,-99.99,,2013-02-21 06:42:00,
2013-02-21 02:01:00,43.0,-99.9,30.11,North,-999,-999.0,-999.0,-999,-99.99,,,-99.99,,2013-02-21 07:01:00,
2013-02-21 02:11:00,-999.0,-99.9,30.11,NNW,343,10.0,13.0,-999,-99.99,,,-99.99,,2013-02-21 07:11:00,
2013-02-21 02:22:00,43.0,-99.9,30.10,North,-999,-999.0,-999.0,-999,-99.99,,,-99.99,,2013-02-21 07:22:00,
2013-02-21 02:32:00,-999.0,-99.9,30.10,North,356,8.0,12.0,-999,-99.99,,,-99.99,,2013-02-21 07:32:00,
2013-02-21 02:42:00,42.0,-99.9,30.10,North,351,11.0,14.0,-999,-99.99,,,-99.99,,2013-02-21 07:42:00,
2013-02-21 02:52:00,42.0,-99.9,30.10,North,-999,-999.0,-999.0,-999,-99.99,,,-99.99,,2013-02-21 07:52:00,
2013-02-21 03:02:00,-999.0,-99.9,30.11,North,351,9.0,12.0,-999,-99.99,,,-99.99,,2013-02-21 08:02:00,
2013-02-21 03:21:00,-999.0,-99.9,30.10,North,357,10.0,14.0,-999,-99.99,,,-99.99,,2013-02-21 08:21:00,
2013-02-21 03:32:00,41.0,-99.9,30.10,North,-999,-999.0,-999.0,-999,-99.99,,,-99.99,,2013-02-21 08:32:00,
2013-02-21 03:52:00,41.0,-99.9,30.10,North,-999,-999.0,-999.0,-999,-99.99,,,-99.99,,2013-02-21 08:52:00,
2013-02-21 04:02:00,-999.0,-99.9,30.10,North,351,9.0,11.0,-999,-99.99,,,-99.99,,2013-02-21 09:02:00,
2013-02-21 04:11:00,-999.0,-99.9,30.11,North,358,10.0,13.0,-999,-99.99,,,-99.99,,2013-02-21 09:11:00,
2013-02-21 04:22:00,40.0,-99.9,30.11,North,-999,-999.0,-999.0,-999,-99.99,,,-99.99,,2013-02-21 09:22:00,
2013-02-21 04:32:00,-999.0,-99.9,30.11,North,357,11.0,15.0,-999,-99.99,,,-99.99,,2013-02-21 09:32:00,
2013-02-21 04:42:00,40.0,-99.9,30.12,North,360,9.0,13.0,-999,-99.99,,,-99.99,,2013-02-21 09:42:00,
2013-02-21 04:52:00,40.0,-99.9,30.12,North,-999,-999.0,-999.0,-999,-99.99,,,-99.99,,2013-02-21 09:52:00,
2013-02-21 05:01:00,40.0,-99.9,30.12,North,-999,-999.0,-999.0,-999,-99.99,,,-99.99,,2013-02-21 10:01:00,
2013-02-21 05:11:00,40.0,-99.9,30.12,North,-999,-999.0,-999.0,-999,-99.99,,,-99.99,,2013-02-21 10:11:00,
2013-02-21 05:21:00,40.0,-99.9,30.12,North,-999,-999.0,-999.0,-999,-99.99,,,-99.99,,2013-02-21 10:21:00,
2013-02-21 06:21:00,-999.0,-99.9,30.14,North,0,11.0,16.0,-999,-99.99,,,-99.99,,2013-02-21 11:21:00,
2013-02-21 06:31:00,-999.0,-99.9,30.15,NNW,342,8.0,14.0,-999,-99.99,,,-99.99,,2013-02-21 11:31:00,
2013-02-21 06:42:00,-999.0,-99.9,30.15,North,350,11.0,14.0,-999,-99.99,,,-99.99,,2013-02-21 11:42:00,
2013-02-21 06:52:00,37.0,-99.9,30.15,North,-999,-999.0,-999.0,-999,-99.99,,,-99.99,,2013-02-21 11:52:00,
2013-02-21 07:01:00,-999.0,-99.9,30.16,North,359,9.0,13.0,-999,-99.99,,,-99.99,,2013-02-21 12:01:00,
2013-02-21 07:22:00,-999.0,-99.9,30.16,North,0,8.0,12.0,-999,-99.99,,,-99.99,,2013-02-21 12:22:00,
2013-02-21 07:32:00,37.0,-99.9,30.16,North,-999,-999.0,-999.0,-999,-99.99,,,-99.99,,2013-02-21 12:32:00,
2013-02-21 07:43:00,-999.0,-99.9,30.17,North,353,9.0,12.0,-999,-99.99,,,-99.99,,2013-02-21 12:43:00,
2013-02-21 07:53:00,-999.0,-99.9,30.18,North,1,8.0,12.0,-999,-99.99,,,-99.99,,2013-02-21 12:53:00,
2013-02-21 08:02:00,37.0,-99.9,30.18,North,-999,-999.0,-999.0,-999,-99.99,,,-99.99,,2013-02-21 13:02:00,
2013-02-21 08:22:00,38.0,-99.9,30.18,North,-999,-999.0,-999.0,-999,-99.99,,,-99.99,,2013-02-21 13:22:00,
2013-02-21 08:32:00,38.0,-99.9,30.18,North,-999,-999.0,-999.0,-999,-99.99,,,-99.99,,2013-02-21 13:32:00,
2013-02-21 08:42:00,-999.0,-99.9,30.19,North,5,7.0,13.0,-999,-99.99,,,-99.99,,2013-02-21 13:42:00,
2013-02-21 08:52:00,38.0,-99.9,30.19,North,-999,-999.0,-999.0,-999,-99.99,,,-99.99,,2013-02-21 13:52:00,
2013-02-21 09:02:00,-999.0,-99.9,30.20,North,10,7.0,14.0,-999,-99.99,,,-99.99,,2013-02-21 14:02:00,
2013-02-21 09:11:00,39.0,-99.9,30.20,North,2,9.0,15.0,-999,-99.99,,,-99.99,,2013-02-21 14:11:00,
2013-02-21 09:22:00,40.0,-99.9,30.19,North,-999,-999.0,-999.0,-999,-99.99,,,-99.99,,2013-02-21 14:22:00,
2013-02-21 09:32:00,40.0,-99.9,30.19,North,-999,-999.0,-999.0,-999,-99.99,,,-99.99,,2013-02-21 14:32:00,
2013-02-21 09:42:00,-999.0,-99.9,30.19,NNE,12,6.0,14.0,-999,-99.99,,,-99.99,,2013-02-21 14:42:00,
2013-02-21 09:52:00,-999.0,-99.9,30.19,NNE,12,6.0,12.0,-999,-99.99,,,-99.99,,2013-02-21 14:52:00,
2013-02-21 10:02:00,41.0,-99.9,30.20,North,-999,-999.0,-999.0,-999,-99.99,,,-99.99,,2013-02-21 15:02:00,
2013-02-21 10:22:00,41.0,-99.9,30.19,North,-999,-999.0,-999.0,-999,-99.99,,,-99.99,,2013-02-21 15:22:00,
2013-02-21 10:32:00,-999.0,-99.9,30.20,NNE,14,5.0,11.0,-999,-99.99,,,-99.99,,2013-02-21 15:32:00,
2013-02-21 10:52:00,-999.0,-99.9,30.19,North,7,4.0,9.0,-999,-99.99,,,-99.99,,2013-02-21 15:52:00,
2013-02-21 11:02:00,-999.0,-99.9,30.19,NNE,17,4.0,10.0,-999,-99.99,,,-99.99,,2013-02-21 16:02:00,
2013-02-21 11:12:00,43.0,-99.9,30.19,North,-999,-999.0,-999.0,-999,-99.99,,,-99.99,,2013-02-21 16:12:00,
2013-02-21 11:22:00,-999.0,-99.9,30.19,North,353,7.0,10.0,-999,-99.99,,,-99.99,,2013-02-21 16:22:00,
2013-02-21 11:32:00,-999.0,-99.9,30.18,North,350,7.0,9.0,-999,-99.99,,,-99.99,,2013-02-21 16:32:00,
2013-02-21 11:42:00,-999.0,-99.9,30.18,North,357,6.0,9.0,-999,-99.99,,,-99.99,,2013-02-21 16:42:00,
2013-02-21 11:52:00,45.0,-99.9,30.17,North,-999,-999.0,-999.0,-999,-99.99,,,-99.99,,2013-02-21 16:52:00,
2013-02-21 12:02:00,45.0,-99.9,30.17,North,-999,-999.0,-999.0,-999,-99.99,,,-99.99,,2013-02-21 17:02:00,
2013-02-21 12:12:00,-999.0,-99.9,30.17,North,1,4.0,6.0,-999,-99.99,,,-99.99,,2013-02-21 17:12:00,
2013-02-21 12:22:00,-999.0,-99.9,30.17,North,350,6.0,10.0,-999,-99.99,,,-99.99,,2013-02-21 17:22:00,
2013-02-21 12:32:00,-999.0,-99.9,30.17,NNE,14,3.0,6.0,-999,-99.99,,,-99.99,,2013-02-21 17:32:00,
2013-02-21 12:42:00,-999.0,-99.9,30.16,North,358,7.0,10.0,-999,-99.99,,,-99.99,,2013-02-21 17:42:00,
2013-02-21 12:52:00,-999.0,-99.9,30.16,NNW,345,7.0,9.0,-999,-99.99,,,-99.99,,2013-02-21 17:52:00,
2013-02-21 13:02:00,-999.0,-99.9,30.16,North,353,7.0,8.0,-999,-99.99,,,-99.99,,2013-02-21 18:02:00,
2013-02-21 13:12:00,48.0,-99.9,30.16,North,358,6.0,11.0,-999,-99.99,,,-99.99,,2013-02-21 18:12:00,
2013-02-21 13:22:00,-999.0,-99.9,30.15,North,357,9.0,13.0,-999,-99.99,,,-99.99,,2013-02-21 18:22:00,
2013-02-21 13:32:00,-999.0,-99.9,30.14,NNE,20,4.0,7.0,-999,-99.99,,,-99.99,,2013-02-21 18:32:00,
2013-02-21 13:42:00,49.0,-99.9,30.14,North,-999,-999.0,-999.0,-999,-99.99,,,-99.99,,2013-02-21 18:42:00,
2013-02-21 13:52:00,49.0,-99.9,30.14,North,-999,-999.0,-999.0,-999,-99.99,,,-99.99,,2013-02-21 18:52:00,
2013-02-21 14:02:00,48.0,-99.9,30.14,North,-999,-999.0,-999.0,-999,-99.99,,,-99.99,,2013-02-21 19:02:00,
2013-02-21 14:12:00,-999.0,-99.9,30.13,South,187,9.0,11.0,-999,-99.99,,,-99.99,,2013-02-21 19:12:00,
2013-02-21 14:22:00,-999.0,-99.9,30.13,South,187,9.0,11.0,-999,-99.99,,,-99.99,,2013-02-21 19:22:00,
2013-02-21 14:32:00,48.0,-99.9,30.13,North,-999,-999.0,-999.0,-999,-99.99,,,-99.99,,2013-02-21 19:32:00,
2013-02-21 15:01:00,48.0,-99.9,30.13,North,-999,-999.0,-999.0,-999,-99.99,,,-99.99,,2013-02-21 20:01:00,
2013-02-21 15:11:00,-999.0,-99.9,30.13,South,188,9.0,10.0,-999,-99.99,,,-99.99,,2013-02-21 20:11:00,
2013-02-21 15:22:00,48.0,-99.9,30.12,North,-999,-999.0,-999.0,-999,-99.99,,,-99.99,,2013-02-21 20:22:00,
2013-02-21 15:32:00,48.0,-99.9,30.12,North,-999,-999.0,-999.0,-999,-99.99,,,-99.99,,2013-02-21 20:32:00,
2013-02-21 15:42:00,48.0,-99.9,30.12,South,183,9.0,11.0,-999,-99.99,,,-99.99,,2013-02-21 20:42:00,
2013-02-21 15:53:00,49.0,-99.9,30.12,North,-999,-999.0,-999.0,-999,-99.99,,,-99.99,,2013-02-21 20:53:00,
2013-02-21 16:02:00,49.0,-99.9,30.12,North,-999,-999.0,-999.0,-999,-99.99,,,-99.99,,2013-02-21 21:02:00,
2013-02-21 16:22:00,-999.0,-99.9,30.11,South,178,7.0,9.0,-999,-99.99,,,-99.99,,2013-02-21 21:22:00,
2013-02-21 16:32:00,-999.0,-99.9,30.10,South,180,6.0,9.0,-999,-99.99,,,-99.99,,2013-02-21 21:32:00,
2013-02-21 16:42:00,-999.0,-99.9,30.11,South,169,6.0,7.0,-999,-99.99,,,-99.99,,2013-02-21 21:42:00,
2013-02-21 16:52:00,-999.0,-99.9,30.11,South,169,5.0,8.0,-999,-99.99,,,-99.99,,2013-02-21 21:52:00,
2013-02-21 17:02:00,-999.0,-99.9,30.12,SE,129,6.0,8.0,-999,-99.99,,,-99.99,,2013-02-21 22:02:00,
2013-02-21 17:11:00,48.0,-99.9,30.12,North,-999,-999.0,-999.0,-999,-99.99,,,-99.99,,2013-02-21 22:11:00,
2013-02-21 17:22:00,48.0,-99.9,30.12,North,-999,-999.0,-999.0,-999,-99.99,,,-99.99,,2013-02-21 22:22:00,
2013-02-21 17:32:00,-999.0,-99.9,30.13,SSE,152,6.0,8.0,-999,-99.99,,,-99.99,,2013-02-21 22:32:00,
2013-02-21 17:42:00,-999.0,-99.9,30.13,SSE,148,5.0,7.0,-999,-99.99,,,-99.99,,2013-02-21 22:42:00,
2013-02-21 17:52:00,-999.0,-99.9,30.13,SE,137,6.0,8.0,-999,-99.99,,,-99.99,,2013-02-21 22:52:00,
2013-02-21 18:01:00,-999.0,-99.9,30.13,SSE,156,5.0,6.0,-999,-99.99,,,-99.99,,2013-02-21 23:01:00,
2013-02-21 18:11:00,-999.0,-99.9,30.14,SE,137,5.0,6.0,-999,-99.99,,,-99.99,,2013-02-21 23:11:00,
2013-02-21 18:22:00,47.0,-99.9,30.14,North,-999,-999.0,-999.0,-999,-99.99,,,-99.99,,2013-02-21 23:22:00,
2013-02-21 18:32:00,47.0,-99.9,30.16,North,-999,-999.0,-999.0,-999,-99.99,,,-99.99,,2013-02-21 23:32:00,
2013-02-21 18:42:00,47.0,-99.9,30.16,North,-999,-999.0,-999.0,-999,-99.99,,,-99.99,,2013-02-21 23:42:00,
2013-02-21 18:53:00,-999.0,-99.9,30.16,ENE,63,3.0,4.0,-999,-99.99,,,-99.99,,2013-02-21 23:53:00,
2013-02-21 19:02:00,46.0,-99.9,30.17,North,-999,-999.0,-999.0,-999,-99.99,,,-99.99,,2013-02-22 00:02:00,
2013-02-21 19:11:00,-999.0,-99.9,30.17,East,82,4.0,5.0,-999,-99.99,,,-99.99,,2013-02-22 00:11:00,
2013-02-21 19:22:00,-999.0,-99.9,30.18,ENE,62,5.0,6.0,-999,-99.99,,,-99.99,,2013-02-22 00:22:00,
2013-02-21 19:32:00,-999.0,-99.9,30.19,NE,46,3.0,6.0,-999,-99.99,,,-99.99,,2013-02-22 00:32:00,
2013-02-21 19:42:00,-999.0,-99.9,30.19,ENE,66,3.0,5.0,-999,-99.99,,,-99.99,,2013-02-22 00:42:00,
2013-02-21 19:52:00,44.0,-99.9,30.19,North,-999,-999.0,-999.0,-999,-99.99,,,-99.99,,2013-02-22 00:52:00,
2013-02-21 20:01:00,-999.0,-99.9,30.21,ENE,69,2.0,6.0,-999,-99.99,,,-99.99,,2013-02-22 01:01:00,
2013-02-21 20:11:00,45.0,-99.9,30.21,North,-999,-999.0,-999.0,-999,-99.99,,,-99.99,,2013-02-22 01:11:00,
2013-02-21 20:22:00,44.0,-99.9,30.21,North,-999,-999.0,-999.0,-999,-99.99,,,-99.99,,2013-02-22 01:22:00,
2013-02-21 20:32:00,-999.0,-99.9,30.22,ENE,66,2.0,3.0,-999,-99.99,,,-99.99,,2013-02-22 01:32:00,
2013-02-21 20:52:00,-999.0,-99.9,30.22,NE,44,3.0,4.0,-999,-99.99,,,-99.99,,2013-02-22 01:52:00,
2013-02-21 21:02:00,-999.0,-99.9,30.23,NE,49,3.0,3.0,-999,-99.99,,,-99.99,,2013-02-22 02:02:00,
2013-02-21 21:22:00,-999.0,-99.9,30.23,NE,42,3.0,6.0,-999,-99.99,,,-99.99,,2013-02-22 02:22:00,
2013-02-21 21:32:00,-999.0,-99.9,30.24,NE,44,5.0,7.0,-999,-99.99,,,-99.99,,2013-02-22 02:32:00,
2013-02-21 21:42:00,43.0,-99.9,30.23,NE,54,3.0,7.0,-999,-99.99,,,-99.99,,2013-02-22 02:42:00,
2013-02-21 21:52:00,-999.0,-99.9,30.23,ENE,61,4.0,7.0,-999,-99.99,,,-99.99,,2013-02-22 02:52:00,
2013-02-21 22:02:00,-999.0,-99.9,30.23,ENE,64,6.0,8.0,-999,-99.99,,,-99.99,,2013-02-22 03:02:00,
2013-02-21 22:22:00,44.0,-99.9,30.24,North,-999,-999.0,-999.0,-999,-99.99,,,-99.99,,2013-02-22 03:22:00,
2013-02-21 22:32:00,43.0,-99.9,30.24,North,-999,-999.0,-999.0,-999,-99.99,,,-99.99,,2013-02-22 03:32:00,
2013-02-21 22:52:00,-999.0,-99.9,30.23,NE,50,4.0,8.0,-999,-99.99,,,-99.99,,2013-02-22 03:52:00,
2013-02-21 23:02:00,-999.0,-99.9,30.24,NE,56,6.0,9.0,-999,-99.99,,,-99.99,,2013-02-22 04:02:00,
2013-02-21 23:11:00,-999.0,-99.9,30.23,NE,49,6.0,12.0,-999,-99.99,,,-99.99,,2013-02-22 04:11:00,
2013-02-21 23:22:00,-999.0,-99.9,30.24,NE,45,7.0,11.0,-999,-99.99,,,-99.99,,2013-02-22 04:22:00,
2013-02-21 23:32:00,-999.0,-99.9,30.24,NE,42,8.0,13.0,-999,-99.99,,,-99.99,,2013-02-22 04:32:00,
2013-02-21 23:42:00,-999.0,-99.9,30.24,NE,42,9.0,14.0,-999,-99.99,,,-99.99,,2013-02-22 04:42:00,
2013-02-21 23:52:00,-999.0,-99.9,30.24,NE,38,9.0,12.0,-999,-99.99,,,-99.99,,2013-02-22 04:52:00,